SCP
0 0 0 0 0 0 0 0 0 0 0 0 0 0 0 0 0 0 0 0 0 0 0 0 -0 -0 -0 0 0 0 0 0 0 0 0 0 0 0 0 0 0 0 0
0 0 0 0 0 0 0 0 0 0 0 0 0 0 0 0 0 0 0 0 0 0 0 -0 0 0 0 0 0 0 0 0 0 0 0 0 0 0 0 0 0 0 0
0 0 0 0 0 0 0 0 0 0 0 0 0 0 0 0 0 0 0 0 0 0 0 0 0 0 0 0 0 0 0 0 0 0 0 0 0 0 0 0 0 0 0
0 0 0 0 0 0 0 0 0 0 0 0 0 0 0 0 0 0 0 0 0 0 0 0 0 0 0 0 0 0 0 0 0 0 0 0 0 0 0 0 0 0 0
0 0 0 0 0 0 0 0 0 0 0 0 0 0 0 0 0 0 0 0 0 0 0 0 0 0 0 0 0 0 0 0 0 0 0 0 0 0 0 0 0 0 0
0 0 0 0 0 0 0 0 0 0 0 0 0 0 0 0 0 0 0 0 0 0 0 0 0 0 0 0 0 0 0 0 0 0 0 0 0 0 0 0 0 0 0
0 0 0 0 0 0 0 0 0 0 0 0 0 0 0 0 0 0 0 0 0 0 0 0 0 0 0 0 0 0 0 0 0 0 0 0 0 0 0 0 0 0 0
0 0 0 0 0 0 0 0 0 0 0 0 0 0 0 0 0 0 0 0 0 0 0 0 0 0 0 0 0 0 0 0 0 0 0 0 0 0 0 0 0 0 0
0 0 0 0 0 0 0 0 0 0 0 0 0 0 0 0 0 0 0 0 0 0 0 0 0 0 0 0 0 0 0 0 0 0 0 0 0 0 0 0 0 0 0
0 0 0 0 0 0 0 0 0 0 0 0 0 0 0 0 0 0 0 0 0 0 -0 0 0 0 0 0 0 0 0 0 0 0 0 0 0 0 0 0 0 0 0
0 0 0 0 0 0 0 0 0 0 0 0 0 0 0 0 0 0 0 0 0 -0 -0 -0 0 0 0 0 0 0 0 0 0 0 0 0 0 0 0 0 0 0 0
0 0 0 0 0 0 0 0 0 0 0 0 0 0 0 0 0 0 0 0 0 0 0 0 0 0 0 0 0 0 0 0 0 0 0 0 0 0 0 0 0 0 0
0 -0 0 0 0 -0 0 0 0 0 0 0 0 0 0 0 0 0 0 -0 -0 0 0 0 0 0 0 0 0 0 0 0 0 0 0 0 0 0 0 0 0 0 0
-0 -0 0 0 0 0 0 0 0 0 0 0 0 0 0 0 0 0 0 0 0 0 0 0 0 0 0 0 0 0 0 0 0 0 0 0 0 0 0 0 0 -0 0
0 0 0 0 0 0 0 0 0 0 0 0 0 0 0 0 0 0 0 0 0 0 0 0 0 0 0 0 0 0 0 0 0 0 0 0 0 0 0 0 0 0 -0
0 0 0 0 0 0 0 0 0 0 0 0 0 0 0 0 0 0 0 0 0 0 0 0 0 0 0 0 0 0 0 0 0 0 0 0 0 0 0 0 0 0 0
0 0 0 0 0 0 -0 0 0 0 0 0 0 0 0 0 0 0 0 0 0 0 0 0 0 0 0 0 0 0 0 0 0 0 0 0 0 0 0 0 0 -0 0
0 0 0 0 0 0 0 0 0 0 0 0 0 0 0 0 0 0 0 0 0 0 0 0 0 0 0 0 0 0 0 0 0 0 0 0 0 0 0 0 0 0 0
0 0 0 0 0 0 0 0 0 0 0 0 0 0 0 0 0 0 0 0 0 0 0 0 0 0 0 0 0 0 0 0 0 0 0 0 0 0 0 0 0 0 0
0 0 0 0 0 0 0 0 0 0 0 0 0 0 0 0 0 0 0 0 0 0 0 0 0 0 0 0 0 0 0 0 0 0 0 0 0 0 0 0 0 0 0
0 0 0 0 0 0 0 0 0 0 0 0 0 0 0 0 0 0 0 0 0 0 0 0 0 0 0 0 0 0 0 0 0 0 0 0 0 0 0 0 0 0 0
0 0 0 0 0 0 0 0 0 0 0 0 0 0 0 0 0 0 0 0 0 0 0 0 0 0 0 0 0 0 0 0 0 0 0 0 0 0 0 0 0 0 0
-0 0 0 0 0 0 0 0 0 0 0 0 0 0 0 0 0 0 0 0 0 0 0 0 0 0 0 0 0 0 0 0 0 0 0 0 0 0 0 0 0 0 0
-0 -0 0 0 0 0 0 0 0 0 0 0 0 0 0 0 0 0 0 0 0 0 0 0 0 0 0 0 0 0 0 0 0 0 0 0 0 0 0 0 0 0 0
-0 -0 0 0 0 0 0 0 0 0 0 0 0 0 0 0 0 0 0 0 0 0 0 0 0 0 0 0 0 0 0 0 0 0 0 0 0 0 0 0 0 0 0
-0 0 0 0 0 0 0 0 0 0 0 0 0 0 0 0 0 0 0 0 0 0 0 0 0 0 0 0 0 0 0 0 0 0 0 0 0 0 0 0 0 0 0
Wind_Speed_500mb
13 3 11 29 33 17 16 15 16 19 19 16 18 19 8 5 7 9 15 21 20 20 18 18 20 14 3 5 8 13 20 23 27 28 28 28 29 33 36 33 34 38 43
13 14 17 17 30 36 17 4 8 2 5 8 23 25 25 30 32 25 19 19 16 17 16 13 9 1 8 12 16 17 21 25 26 27 26 27 30 37 39 37 36 40 42
12 12 18 25 28 26 21 16 13 10 34 33 36 32 27 25 22 23 21 18 14 10 6 1 7 12 16 19 24 24 27 28 26 26 26 29 30 30 35 39 40 42 43
21 24 25 25 27 26 28 36 35 29 31 31 28 23 19 21 20 17 11 7 2 6 12 17 18 20 23 26 28 29 27 28 27 26 28 27 27 32 33 38 44 44 45
22 26 30 27 30 37 31 31 32 35 31 24 21 21 22 16 13 7 2 5 11 15 19 22 23 23 24 23 20 21 24 26 25 25 27 32 37 39 44 44 46 50 51
20 30 29 37 32 38 43 44 39 35 36 32 23 12 9 11 8 5 10 16 18 18 18 18 18 16 12 13 17 23 28 29 29 33 33 39 42 42 40 43 47 49 56
33 39 36 36 36 39 38 32 32 27 25 21 17 14 13 13 14 18 20 18 16 17 19 16 15 15 14 14 14 19 22 24 28 33 36 37 39 36 41 45 43 45 51
31 29 30 26 27 27 33 35 30 22 18 16 15 15 14 18 21 23 22 22 22 22 20 17 14 13 15 16 18 18 22 25 26 28 32 36 39 41 44 48 50 47 50
21 20 21 22 26 30 28 24 21 16 15 14 19 19 20 23 24 27 27 29 30 31 30 20 15 14 17 19 21 25 27 28 31 33 36 38 39 39 41 42 41 41 46
33 33 30 29 24 22 20 15 14 13 13 16 16 20 20 24 30 31 26 24 26 33 36 32 29 28 26 25 26 28 32 40 46 45 41 37 35 34 29 36 39 42 45
26 33 32 28 19 14 11 12 11 17 18 17 21 22 24 25 26 27 25 23 23 29 31 33 32 31 28 27 30 34 40 46 47 42 38 36 34 36 40 37 40 45 49
27 30 24 22 20 16 14 21 21 13 21 22 19 20 19 18 19 21 23 20 17 20 27 29 31 31 34 32 33 36 42 50 43 41 39 38 38 37 42 36 35 41 44
23 19 17 19 22 23 19 16 18 17 18 18 15 15 14 12 12 14 19 21 20 20 22 22 23 32 34 38 43 41 47 46 44 43 41 41 44 45 40 44 39 35 37
21 15 14 17 21 18 13 13 13 16 15 13 10 8 11 13 13 13 14 15 17 17 16 20 23 26 32 38 41 44 48 42 40 43 45 48 47 48 45 41 40 38 37
8 17 17 17 18 16 14 14 15 15 13 10 6 3 9 16 20 22 20 13 10 14 17 20 21 27 33 38 43 47 47 36 42 39 51 60 57 50 49 37 45 32 26
6 14 14 15 17 15 20 17 13 9 5 3 2 1 6 20 31 22 17 14 14 16 19 19 23 28 32 40 48 47 45 35 40 42 47 58 54 52 51 46 39 46 30
7 11 15 10 8 10 17 15 10 5 3 3 6 8 16 23 21 21 18 18 15 12 17 13 20 28 35 42 42 38 43 33 37 40 42 48 59 55 47 49 41 56 38
16 16 9 6 5 7 8 11 10 7 7 9 13 18 23 24 21 23 14 13 14 12 11 13 20 28 39 40 40 37 39 31 36 35 36 49 51 58 57 45 46 46 41
18 15 11 12 10 7 7 11 13 10 11 13 18 17 17 16 14 14 10 8 9 13 18 19 23 28 34 36 36 35 30 30 34 36 31 41 52 53 59 54 44 38 35
10 9 8 6 5 5 6 11 8 9 15 15 12 11 13 14 13 9 9 10 12 18 25 24 24 26 30 34 32 33 27 26 31 33 34 36 44 46 49 56 50 45 35
7 5 2 3 7 8 7 7 11 12 14 12 11 11 13 17 17 16 17 18 19 20 21 22 20 21 28 27 28 26 28 28 32 33 35 36 41 42 46 46 50 45 37
8 3 5 5 5 4 6 9 11 12 12 12 14 16 19 21 17 15 15 15 15 16 18 17 17 22 25 26 27 28 27 28 33 33 35 36 35 41 34 41 44 42 40
10 8 7 7 10 10 7 8 11 13 14 16 16 14 17 22 20 20 19 19 19 16 15 17 19 18 18 21 27 29 32 26 29 33 35 36 35 35 39 32 34 39 40
5 4 9 13 13 11 11 11 15 16 17 21 23 20 20 23 23 21 17 16 18 21 18 18 22 20 20 22 25 26 30 34 31 33 35 32 32 30 31 38 25 28 33
6 1 2 6 6 7 10 10 14 15 17 21 24 26 27 25 25 23 21 18 17 17 19 21 20 19 20 23 26 27 28 33 29 31 35 35 31 31 26 26 30 27 24
13 10 11 4 2 4 6 7 9 13 14 18 22 24 25 25 25 25 24 22 21 20 20 20 20 20 20 21 23 23 24 25 31 32 34 35 35 31 29 22 21 24 23
Wind_Direction_500mb
38 2 211 195 198 222 309 289 268 312 296 278 262 248 249 105 133 104 97 97 104 109 93 66 60 65 57 304 287 303 310 303 296 291 290 290 293 293 294 295 295 292 287
92 129 161 185 260 272 270 339 54 128 56 182 111 103 106 101 98 98 99 105 99 77 70 74 75 24 272 295 305 317 315 305 297 291 290 292 290 293 295 294 297 297 298
95 94 87 79 79 95 106 93 80 96 103 94 108 114 110 112 112 112 114 120 104 107 116 290 305 300 301 296 301 305 309 305 296 290 290 293 293 292 291 293 296 302 305
78 90 87 74 81 84 89 95 96 88 94 104 109 109 110 116 112 115 134 143 177 280 295 303 312 308 303 298 298 300 299 293 293 287 281 284 288 294 301 307 305 308 304
85 89 81 83 98 100 102 108 105 101 102 107 116 113 117 125 115 113 68 308 298 306 311 310 309 309 309 309 306 305 312 306 298 293 301 303 303 300 301 305 308 308 304
111 102 105 117 112 103 106 106 107 111 112 115 116 126 137 122 88 34 7 354 346 341 342 346 346 337 327 320 319 316 310 313 308 310 308 302 307 308 302 299 306 317 314
114 119 118 113 106 107 107 107 118 117 117 112 100 94 89 76 41 17 12 15 22 29 28 26 11 0 352 350 344 333 328 325 322 316 312 312 304 301 296 299 300 304 308
116 122 116 108 107 108 113 115 116 113 106 102 94 76 55 54 42 38 36 42 46 44 31 15 357 344 336 327 328 327 329 328 323 322 318 312 304 299 296 296 299 293 291
129 128 123 115 114 118 116 113 110 109 98 92 85 68 55 64 55 61 61 64 59 41 26 18 14 15 6 348 336 334 332 327 322 321 319 312 308 306 293 293 296 290 292
117 113 111 111 113 112 105 106 117 113 112 102 95 88 79 80 73 67 68 67 57 41 42 46 46 39 30 23 16 5 357 349 339 332 325 318 313 312 301 291 297 297 292
123 116 111 100 96 92 99 112 121 129 119 119 113 100 89 84 81 72 62 51 47 39 43 44 41 31 21 12 5 1 356 345 343 339 334 332 323 313 304 294 289 289 290
112 98 114 112 101 88 100 116 126 119 125 122 108 99 93 84 72 52 40 41 47 41 36 35 33 26 23 19 6 356 353 352 354 353 352 350 343 334 328 319 304 299 284
118 111 117 111 90 86 82 102 116 124 128 122 118 91 82 70 48 33 30 35 40 31 24 17 10 10 10 10 7 1 357 359 2 2 355 346 337 333 332 331 319 301 292
135 141 116 110 80 66 68 109 110 119 122 127 134 85 54 37 22 14 18 17 10 14 9 1 353 350 356 3 5 5 3 5 10 5 356 356 349 354 349 342 337 320 310
157 147 135 113 81 55 77 112 124 131 119 118 107 55 23 11 357 355 352 353 347 338 348 353 358 358 358 1 2 2 5 12 11 10 4 5 5 10 4 358 4 353 340
232 153 144 134 77 71 76 82 98 101 114 85 34 4 1 355 352 337 351 344 327 337 347 4 6 3 357 359 357 359 8 13 8 9 11 11 13 15 12 18 21 11 355
155 152 146 120 74 77 77 59 52 67 26 355 344 326 322 316 333 325 317 326 315 331 346 4 1 359 0 358 357 1 5 9 8 16 19 17 23 24 21 22 16 19 16
103 93 114 130 97 104 54 14 342 331 338 338 328 315 310 317 322 311 302 287 286 315 350 353 356 359 7 5 2 3 5 9 12 18 20 15 18 26 24 20 19 23 34
87 81 74 93 82 49 357 344 2 347 343 338 322 314 327 330 331 334 331 286 328 347 345 346 346 350 359 1 1 1 5 12 16 17 17 17 20 21 23 22 21 21 36
82 79 85 84 22 339 338 344 352 358 334 337 333 334 357 357 332 326 328 325 327 332 321 329 336 342 348 356 2 1 10 12 17 17 21 16 19 25 21 19 19 19 22
63 44 41 334 44 22 59 28 2 6 356 0 358 348 337 329 320 310 305 306 312 321 335 337 338 342 347 357 5 12 15 19 18 20 21 20 19 19 16 22 23 23 26
338 309 356 14 43 47 41 29 9 6 20 8 349 337 329 322 322 323 324 324 328 326 338 347 338 342 354 4 14 15 17 18 22 21 21 21 20 14 19 22 27 32 28
39 20 10 98 89 66 42 46 37 33 28 19 13 21 30 31 36 36 30 30 18 21 24 14 10 13 19 18 12 15 17 16 18 15 17 19 21 17 11 19 23 32 33
6 55 78 101 82 67 56 62 46 47 45 43 44 43 39 38 38 45 39 33 33 28 30 28 25 34 33 21 15 14 16 14 10 14 15 15 18 15 14 15 26 34 33
242 199 149 67 62 42 39 51 46 48 47 47 46 46 45 43 40 38 34 34 32 32 32 30 31 31 28 23 21 24 21 7 13 19 17 14 15 17 22 21 30 27 32
219 235 233 249 307 345 13 34 44 44 47 46 43 41 39 38 36 35 34 34 32 30 27 26 25 23 20 18 18 21 22 19 22 16 22 23 23 21 18 18 15 21 30
Wind_Speed_850mb
13 3 11 29 33 17 16 15 16 19 19 16 18 19 8 5 7 9 15 21 20 20 18 18 20 14 3 5 8 13 20 23 27 28 28 28 29 33 36 33 34 38 43
13 14 17 17 30 36 17 4 8 2 5 8 23 25 25 30 32 25 19 19 16 17 16 13 9 1 8 12 16 17 21 25 26 27 26 27 30 37 39 37 36 40 42
12 12 18 25 28 26 21 16 13 10 34 33 36 32 27 25 22 23 21 18 14 10 6 1 7 12 16 19 24 24 27 28 26 26 26 29 30 30 35 39 40 42 43
21 24 25 25 27 26 28 36 35 29 31 31 28 23 19 21 20 17 11 7 2 6 12 17 18 20 23 26 28 29 27 28 27 26 28 27 27 32 33 38 44 44 45
22 26 30 27 30 37 31 31 32 35 31 24 21 21 22 16 13 7 2 5 11 15 19 22 23 23 24 23 20 21 24 26 25 25 27 32 37 39 44 44 46 50 51
20 30 29 37 32 38 43 44 39 35 36 32 23 12 9 11 8 5 10 16 18 18 18 18 18 16 12 13 17 23 28 29 29 33 33 39 42 42 40 43 47 49 56
33 39 36 36 36 39 38 32 32 27 25 21 17 14 13 13 14 18 20 18 16 17 19 16 15 15 14 14 14 19 22 24 28 33 36 37 39 36 41 45 43 45 51
31 29 30 26 27 27 33 35 30 22 18 16 15 15 14 18 21 23 22 22 22 22 20 17 14 13 15 16 18 18 22 25 26 28 32 36 39 41 44 48 50 47 50
21 20 21 22 26 30 28 24 21 16 15 14 19 19 20 23 24 27 27 29 30 31 30 20 15 14 17 19 21 25 27 28 31 33 36 38 39 39 41 42 41 41 46
33 33 30 29 24 22 20 15 14 13 13 16 16 20 20 24 30 31 26 24 26 33 36 32 29 28 26 25 26 28 32 40 46 45 41 37 35 34 29 36 39 42 45
26 33 32 28 19 14 11 12 11 17 18 17 21 22 24 25 26 27 25 23 23 29 31 33 32 31 28 27 30 34 40 46 47 42 38 36 34 36 40 37 40 45 49
27 30 24 22 20 16 14 21 21 13 21 22 19 20 19 18 19 21 23 20 17 20 27 29 31 31 34 32 33 36 42 50 43 41 39 38 38 37 42 36 35 41 44
23 19 17 19 22 23 19 16 18 17 18 18 15 15 14 12 12 14 19 21 20 20 22 22 23 32 34 38 43 41 47 46 44 43 41 41 44 45 40 44 39 35 37
21 15 14 17 21 18 13 13 13 16 15 13 10 8 11 13 13 13 14 15 17 17 16 20 23 26 32 38 41 44 48 42 40 43 45 48 47 48 45 41 40 38 37
8 17 17 17 18 16 14 14 15 15 13 10 6 3 9 16 20 22 20 13 10 14 17 20 21 27 33 38 43 47 47 36 42 39 51 60 57 50 49 37 45 32 26
6 14 14 15 17 15 20 17 13 9 5 3 2 1 6 20 31 22 17 14 14 16 19 19 23 28 32 40 48 47 45 35 40 42 47 58 54 52 51 46 39 46 30
7 11 15 10 8 10 17 15 10 5 3 3 6 8 16 23 21 21 18 18 15 12 17 13 20 28 35 42 42 38 43 33 37 40 42 48 59 55 47 49 41 56 38
16 16 9 6 5 7 8 11 10 7 7 9 13 18 23 24 21 23 14 13 14 12 11 13 20 28 39 40 40 37 39 31 36 35 36 49 51 58 57 45 46 46 41
18 15 11 12 10 7 7 11 13 10 11 13 18 17 17 16 14 14 10 8 9 13 18 19 23 28 34 36 36 35 30 30 34 36 31 41 52 53 59 54 44 38 35
10 9 8 6 5 5 6 11 8 9 15 15 12 11 13 14 13 9 9 10 12 18 25 24 24 26 30 34 32 33 27 26 31 33 34 36 44 46 49 56 50 45 35
7 5 2 3 7 8 7 7 11 12 14 12 11 11 13 17 17 16 17 18 19 20 21 22 20 21 28 27 28 26 28 28 32 33 35 36 41 42 46 46 50 45 37
8 3 5 5 5 4 6 9 11 12 12 12 14 16 19 21 17 15 15 15 15 16 18 17 17 22 25 26 27 28 27 28 33 33 35 36 35 41 34 41 44 42 40
10 8 7 7 10 10 7 8 11 13 14 16 16 14 17 22 20 20 19 19 19 16 15 17 19 18 18 21 27 29 32 26 29 33 35 36 35 35 39 32 34 39 40
5 4 9 13 13 11 11 11 15 16 17 21 23 20 20 23 23 21 17 16 18 21 18 18 22 20 20 22 25 26 30 34 31 33 35 32 32 30 31 38 25 28 33
6 1 2 6 6 7 10 10 14 15 17 21 24 26 27 25 25 23 21 18 17 17 19 21 20 19 20 23 26 27 28 33 29 31 35 35 31 31 26 26 30 27 24
13 10 11 4 2 4 6 7 9 13 14 18 22 24 25 25 25 25 24 22 21 20 20 20 20 20 20 21 23 23 24 25 31 32 34 35 35 31 29 22 21 24 23
Wind_Direction_850mb
38 2 211 195 198 222 309 289 268 312 296 278 262 248 249 105 133 104 97 97 104 109 93 66 60 65 57 304 287 303 310 303 296 291 290 290 293 293 294 295 295 292 287
92 129 161 185 260 272 270 339 54 128 56 182 111 103 106 101 98 98 99 105 99 77 70 74 75 24 272 295 305 317 315 305 297 291 290 292 290 293 295 294 297 297 298
95 94 87 79 79 95 106 93 80 96 103 94 108 114 110 112 112 112 114 120 104 107 116 290 305 300 301 296 301 305 309 305 296 290 290 293 293 292 291 293 296 302 305
78 90 87 74 81 84 89 95 96 88 94 104 109 109 110 116 112 115 134 143 177 280 295 303 312 308 303 298 298 300 299 293 293 287 281 284 288 294 301 307 305 308 304
85 89 81 83 98 100 102 108 105 101 102 107 116 113 117 125 115 113 68 308 298 306 311 310 309 309 309 309 306 305 312 306 298 293 301 303 303 300 301 305 308 308 304
111 102 105 117 112 103 106 106 107 111 112 115 116 126 137 122 88 34 7 354 346 341 342 346 346 337 327 320 319 316 310 313 308 310 308 302 307 308 302 299 306 317 314
114 119 118 113 106 107 107 107 118 117 117 112 100 94 89 76 41 17 12 15 22 29 28 26 11 0 352 350 344 333 328 325 322 316 312 312 304 301 296 299 300 304 308
116 122 116 108 107 108 113 115 116 113 106 102 94 76 55 54 42 38 36 42 46 44 31 15 357 344 336 327 328 327 329 328 323 322 318 312 304 299 296 296 299 293 291
129 128 123 115 114 118 116 113 110 109 98 92 85 68 55 64 55 61 61 64 59 41 26 18 14 15 6 348 336 334 332 327 322 321 319 312 308 306 293 293 296 290 292
117 113 111 111 113 112 105 106 117 113 112 102 95 88 79 80 73 67 68 67 57 41 42 46 46 39 30 23 16 5 357 349 339 332 325 318 313 312 301 291 297 297 292
123 116 111 100 96 92 99 112 121 129 119 119 113 100 89 84 81 72 62 51 47 39 43 44 41 31 21 12 5 1 356 345 343 339 334 332 323 313 304 294 289 289 290
112 98 114 112 101 88 100 116 126 119 125 122 108 99 93 84 72 52 40 41 47 41 36 35 33 26 23 19 6 356 353 352 354 353 352 350 343 334 328 319 304 299 284
118 111 117 111 90 86 82 102 116 124 128 122 118 91 82 70 48 33 30 35 40 31 24 17 10 10 10 10 7 1 357 359 2 2 355 346 337 333 332 331 319 301 292
135 141 116 110 80 66 68 109 110 119 122 127 134 85 54 37 22 14 18 17 10 14 9 1 353 350 356 3 5 5 3 5 10 5 356 356 349 354 349 342 337 320 310
157 147 135 113 81 55 77 112 124 131 119 118 107 55 23 11 357 355 352 353 347 338 348 353 358 358 358 1 2 2 5 12 11 10 4 5 5 10 4 358 4 353 340
232 153 144 134 77 71 76 82 98 101 114 85 34 4 1 355 352 337 351 344 327 337 347 4 6 3 357 359 357 359 8 13 8 9 11 11 13 15 12 18 21 11 355
155 152 146 120 74 77 77 59 52 67 26 355 344 326 322 316 333 325 317 326 315 331 346 4 1 359 0 358 357 1 5 9 8 16 19 17 23 24 21 22 16 19 16
103 93 114 130 97 104 54 14 342 331 338 338 328 315 310 317 322 311 302 287 286 315 350 353 356 359 7 5 2 3 5 9 12 18 20 15 18 26 24 20 19 23 34
87 81 74 93 82 49 357 344 2 347 343 338 322 314 327 330 331 334 331 286 328 347 345 346 346 350 359 1 1 1 5 12 16 17 17 17 20 21 23 22 21 21 36
82 79 85 84 22 339 338 344 352 358 334 337 333 334 357 357 332 326 328 325 327 332 321 329 336 342 348 356 2 1 10 12 17 17 21 16 19 25 21 19 19 19 22
63 44 41 334 44 22 59 28 2 6 356 0 358 348 337 329 320 310 305 306 312 321 335 337 338 342 347 357 5 12 15 19 18 20 21 20 19 19 16 22 23 23 26
338 309 356 14 43 47 41 29 9 6 20 8 349 337 329 322 322 323 324 324 328 326 338 347 338 342 354 4 14 15 17 18 22 21 21 21 20 14 19 22 27 32 28
39 20 10 98 89 66 42 46 37 33 28 19 13 21 30 31 36 36 30 30 18 21 24 14 10 13 19 18 12 15 17 16 18 15 17 19 21 17 11 19 23 32 33
6 55 78 101 82 67 56 62 46 47 45 43 44 43 39 38 38 45 39 33 33 28 30 28 25 34 33 21 15 14 16 14 10 14 15 15 18 15 14 15 26 34 33
242 199 149 67 62 42 39 51 46 48 47 47 46 46 45 43 40 38 34 34 32 32 32 30 31 31 28 23 21 24 21 7 13 19 17 14 15 17 22 21 30 27 32
219 235 233 249 307 345 13 34 44 44 47 46 43 41 39 38 36 35 34 34 32 30 27 26 25 23 20 18 18 21 22 19 22 16 22 23 23 21 18 18 15 21 30